• In Portugal
  • List of Countries
  • For 7 days
  • Water Temperature
  • Satellite Maps
  • Weather Map
  • Weather Widgets
  • user-avatar
    Login

    Hourly Weather Ramadi

    Today, 25 September, Monday

    Time Temperature Precipitation Wind Pressure Humidity
    00:00 +34°C° 0 mm 4 mps 753 mmHg 23%
    01:00 +34°C° 0 mm 4 mps 753 mmHg 25%
    02:00 +33°C° 0 mm 4 mps 753 mmHg 26%
    03:00 +33°C° 0 mm 4 mps 753 mmHg 28%
    04:00 +32°C° 0 mm 4 mps 753 mmHg 29%
    05:00 +32°C° 0 mm 4 mps 753 mmHg 31%
    06:00 +30°C° 0 mm 4 mps 753 mmHg 33%
    07:00 +33°C° 0 mm 4 mps 753 mmHg 29%
    08:00 +35°C° 0 mm 4 mps 753 mmHg 25%
    09:00 +37°C° 0 mm 4 mps 753 mmHg 21%
    10:00 +38°C° 0 mm 4 mps 753 mmHg 19%
    11:00 +41°C° 0 mm 4 mps 753 mmHg 17%
    12:00 +42°C° 0 mm 3 mps 753 mmHg 15%
    13:00 +42°C° 0 mm 3 mps 753 mmHg 14%
    14:00 +42°C° 0 mm 2 mps 752 mmHg 14%
    15:00 +42°C° 0 mm 2 mps 752 mmHg 13%
    16:00 +41°C° 0 mm 2 mps 752 mmHg 14%
    17:00 +40°C° 0 mm 2 mps 751 mmHg 15%
    18:00 +40°C° 0 mm 2 mps 751 mmHg 15%
    19:00 +39°C° 0 mm 3 mps 751 mmHg 16%
    20:00 +38°C° 0 mm 3 mps 751 mmHg 17%
    21:00 +38°C° 0 mm 3 mps 752 mmHg 17%
    22:00 +37°C° 0 mm 3 mps 752 mmHg 18%
    23:00 +36°C° 0 mm 3 mps 752 mmHg 18%

    Tomorrow, 26 September, Tuesday

    Time Temperature Precipitation Wind Pressure Humidity
    00:00 +36°C° 0 mm 3 mps 752 mmHg 18%
    01:00 +35°C° 0 mm 2 mps 751 mmHg 19%
    02:00 +35°C° 0 mm 2 mps 751 mmHg 20%
    03:00 +34°C° 0 mm 2 mps 751 mmHg 21%
    04:00 +32°C° 0 mm 2 mps 751 mmHg 22%
    05:00 +31°C° 0 mm 1 mps 751 mmHg 23%
    06:00 +31°C° 0 mm 1 mps 751 mmHg 23%
    07:00 +33°C° 0 mm 1 mps 751 mmHg 21%
    08:00 +35°C° 0 mm 1 mps 752 mmHg 19%
    09:00 +35°C° 0 mm 0 mps 752 mmHg 16%
    10:00 +39°C° 0 mm 1 mps 752 mmHg 15%
    11:00 +41°C° 0 mm 2 mps 752 mmHg 14%
    12:00 +42°C° 0 mm 2 mps 752 mmHg 13%
    13:00 +43°C° 0 mm 2 mps 751 mmHg 12%
    14:00 +43°C° 0 mm 2 mps 751 mmHg 12%
    15:00 +45°C° 0 mm 2 mps 750 mmHg 12%
    16:00 +43°C° 0 mm 2 mps 750 mmHg 12%
    17:00 +42°C° 0 mm 2 mps 750 mmHg 13%
    18:00 +41°C° 0 mm 2 mps 750 mmHg 14%
    19:00 +40°C° 0 mm 3 mps 750 mmHg 14%
    20:00 +39°C° 0 mm 3 mps 750 mmHg 15%
    21:00 +38°C° 0 mm 3 mps 751 mmHg 16%
    22:00 +37°C° 0 mm 3 mps 751 mmHg 16%
    23:00 +37°C° 0 mm 3 mps 751 mmHg 17%

    Day after tomorrow, 27 September, Wednesday

    Time Temperature Precipitation Wind Pressure Humidity
    00:00 +36°C° 0 mm 3 mps 751 mmHg 17%
    01:00 +35°C° 0 mm 3 mps 751 mmHg 19%
    02:00 +35°C° 0 mm 4 mps 751 mmHg 20%
    03:00 +34°C° 0 mm 4 mps 751 mmHg 22%
    04:00 +34°C° 0 mm 4 mps 751 mmHg 24%
    05:00 +33°C° 0 mm 4 mps 751 mmHg 26%
    06:00 +33°C° 0 mm 4 mps 752 mmHg 29%
    07:00 +34°C° 0 mm 5 mps 752 mmHg 28%
    08:00 +35°C° 0 mm 6 mps 752 mmHg 26%
    09:00 +36°C° 0 mm 6 mps 753 mmHg 25%
    10:00 +38°C° 0 mm 6 mps 753 mmHg 23%
    11:00 +40°C° 0 mm 6 mps 753 mmHg 21%
    12:00 +41°C° 0 mm 7 mps 753 mmHg 19%
    13:00 +42°C° 0 mm 6 mps 752 mmHg 18%
    14:00 +42°C° 0 mm 6 mps 752 mmHg 18%
    15:00 +42°C° 0 mm 6 mps 751 mmHg 17%
    16:00 +41°C° 0 mm 6 mps 751 mmHg 19%
    17:00 +40°C° 0 mm 6 mps 751 mmHg 20%
    18:00 +39°C° 0 mm 5 mps 751 mmHg 22%
    19:00 +37°C° 0 mm 5 mps 752 mmHg 23%
    20:00 +36°C° 0 mm 6 mps 752 mmHg 25%
    21:00 +35°C° 0 mm 6 mps 753 mmHg 26%
    22:00 +35°C° 0 mm 5 mps 753 mmHg 27%
    23:00 +34°C° 0 mm 5 mps 753 mmHg 28%

    28 September, Thursday

    Time Temperature Precipitation Wind Pressure Humidity
    00:00 +34°C° 0 mm 5 mps 753 mmHg 29%
    01:00 +33°C° 0 mm 5 mps 753 mmHg 30%
    02:00 +32°C° 0 mm 5 mps 753 mmHg 31%
    03:00 +32°C° 0 mm 5 mps 753 mmHg 32%
    04:00 +30°C° 0 mm 4 mps 753 mmHg 34%
    05:00 +30°C° 0 mm 4 mps 753 mmHg 36%
    06:00 +29°C° 0 mm 3 mps 753 mmHg 37%
    07:00 +30°C° 0 mm 3 mps 754 mmHg 35%
    08:00 +32°C° 0 mm 4 mps 754 mmHg 33%
    09:00 +34°C° 0 mm 4 mps 755 mmHg 31%
    10:00 +35°C° 0 mm 4 mps 754 mmHg 27%
    11:00 +36°C° 0 mm 4 mps 754 mmHg 24%
    12:00 +37°C° 0 mm 4 mps 754 mmHg 21%
    13:00 +37°C° 0 mm 4 mps 754 mmHg 20%
    14:00 +38°C° 0 mm 4 mps 753 mmHg 18%
    15:00 +40°C° 0 mm 5 mps 753 mmHg 17%
    16:00 +38°C° 0 mm 4 mps 753 mmHg 18%
    17:00 +37°C° 0 mm 3 mps 753 mmHg 19%
    18:00 +36°C° 0 mm 3 mps 753 mmHg 20%
    19:00 +36°C° 0 mm 3 mps 753 mmHg 21%
    20:00 +35°C° 0 mm 3 mps 753 mmHg 22%
    21:00 +34°C° 0 mm 2 mps 753 mmHg 23%
    22:00 +34°C° 0 mm 3 mps 753 mmHg 24%
    23:00 +33°C° 0 mm 3 mps 753 mmHg 25%

    29 September, Friday

    Time Temperature Precipitation Wind Pressure Humidity
    00:00 +33°C° 0 mm 3 mps 753 mmHg 26%
    01:00 +31°C° 0 mm 3 mps 752 mmHg 26%
    02:00 +31°C° 0 mm 3 mps 752 mmHg 26%
    03:00 +31°C° 0 mm 3 mps 752 mmHg 27%
    04:00 +30°C° 0 mm 3 mps 752 mmHg 27%
    05:00 +30°C° 0 mm 3 mps 752 mmHg 27%
    06:00 +29°C° 0 mm 2 mps 752 mmHg 28%
    07:00 +31°C° 0 mm 3 mps 752 mmHg 25%
    08:00 +34°C° 0 mm 3 mps 753 mmHg 22%
    09:00 +35°C° 0 mm 4 mps 753 mmHg 19%
    10:00 +37°C° 0 mm 3 mps 752 mmHg 17%
    11:00 +38°C° 0 mm 3 mps 752 mmHg 16%
    12:00 +39°C° 0 mm 2 mps 752 mmHg 15%
    13:00 +40°C° 0 mm 3 mps 751 mmHg 14%
    14:00 +42°C° 0 mm 3 mps 750 mmHg 14%
    15:00 +42°C° 0 mm 3 mps 750 mmHg 13%
    16:00 +40°C° 0 mm 2 mps 749 mmHg 14%
    17:00 +39°C° 0 mm 2 mps 749 mmHg 15%
    18:00 +38°C° 0 mm 2 mps 749 mmHg 16%
    19:00 +37°C° 0 mm 2 mps 749 mmHg 17%
    20:00 +37°C° 0 mm 3 mps 749 mmHg 17%
    21:00 +36°C° 0 mm 4 mps 749 mmHg 18%
    22:00 +36°C° 0 mm 3 mps 749 mmHg 19%
    23:00 +35°C° 0 mm 3 mps 748 mmHg 19%

    30 September, Saturday

    Time Temperature Precipitation Wind Pressure Humidity
    00:00 +35°C° 0 mm 3 mps 748 mmHg 19%
    01:00 +34°C° 0 mm 3 mps 748 mmHg 19%
    02:00 +34°C° 0 mm 3 mps 748 mmHg 19%
    03:00 +33°C° 0 mm 3 mps 748 mmHg 19%
    04:00 +33°C° 0 mm 4 mps 748 mmHg 21%
    05:00 +32°C° 0 mm 4 mps 748 mmHg 22%
    06:00 +32°C° 0 mm 5 mps 749 mmHg 23%
    07:00 +33°C° 0 mm 7 mps 749 mmHg 25%
    08:00 +33°C° 0 mm 8 mps 750 mmHg 27%
    09:00 +34°C° 0 mm 10 mps 750 mmHg 29%
    10:00 +35°C° 0 mm 9 mps 750 mmHg 27%
    11:00 +37°C° 0 mm 9 mps 751 mmHg 25%
    12:00 +38°C° 0 mm 9 mps 751 mmHg 23%
    13:00 +39°C° 0 mm 8 mps 751 mmHg 22%
    14:00 +39°C° 0 mm 7 mps 750 mmHg 20%
    15:00 +40°C° 0 mm 7 mps 750 mmHg 19%
    16:00 +39°C° 0 mm 6 mps 751 mmHg 21%
    17:00 +37°C° 0 mm 5 mps 751 mmHg 23%
    18:00 +36°C° 0 mm 4 mps 751 mmHg 25%
    19:00 +35°C° 0 mm 4 mps 752 mmHg 27%
    20:00 +34°C° 0 mm 4 mps 753 mmHg 29%
    21:00 +33°C° 0 mm 4 mps 753 mmHg 31%
    22:00 +32°C° 0 mm 4 mps 753 mmHg 32%
    23:00 +32°C° 0 mm 4 mps 753 mmHg 33%
    Show more